Current weather by "City, St" or "zip code"  
 

Current Conditions: Lompoc, Vandenberg Air Force Base, CA

Fair


45.0 F

Last Updated on May 21 2022, 1:58 am PDT
Humidity: 91%
Wind Speed: N 0.0 mph
Barometer 29.88 in
Dewpoint: 42.1 F
Visibility: 10.00 mi
Precip: --
Heat Index: NA
Wind Chill: NA
Current conditions at:

Lompoc, Vandenberg Air Force Base, CA (KVBG)

Lat: 34.72944 Lon: 120.57667

Local Radar Image active severe weather and emergency alerts image image weather storm and storm spotter reports image weather observation monitoring service image
Local
Radar
Active
Alerts
Storm Reports Obs
Monitoring

Sign-up For Email & Text Message Weather Alert Notification Services



Advertise Here

Observation History for Lompoc, Vandenberg Air Force Base, CA


Time Wind
(mph)
Vis
(mi)
Weather Precip (in) Temperature (F) Relative
Humidity
Wind
Chill
(F)
Heat
Index
(F)
Pressure
Air Dwpt altimeter
(in)
sea level
(mb)
Rmks
1:58 am PDT N 0.0 10.00 Fair -- 45.0 42.1 91% NA NA 29.88 1012.2
12:58 am PDT N 0.0 10.00 Fair -- 46.0 43.3 92% NA NA 29.89 1012.5
11:58 pm PDT N 0.0 10.00 Fair -- 45.0 42.1 91% NA NA 29.89 1012.5
10:58 pm PDT N 0.0 10.00 Fair -- 47.0 44.1 91% NA NA 29.89 1012.5
9:58 pm PDT N 0.0 10.00 Fair -- 49.0 45.1 88% NA NA 29.88 1012.1
8:58 pm PDT N 0.0 10.00 Fair -- 48.0 44.1 85% NA NA 29.87 1011.8
7:58 pm PDT NW 3.5 10.00 Fair -- 52.0 45.3 79% NA NA 29.85 1011.1
6:58 pm PDT N 10.4 10.00 Fair -- 55.0 46.6 75% 52 NA 29.84 1010.8
5:58 pm PDT NW 6.9 10.00 Fair -- 59.0 47.3 65% 58 NA 29.84 1010.8
4:58 pm PDT NW 6.9 10.00 A Few Clouds -- 61.0 49.8 67% 60 NA 29.83 1010.4
2:58 pm PDT W 11.5 10.00 A Few Clouds -- 59.0 48.6 68% 57 NA 29.83 1010.4
1:58 pm PDT W 12.7 7.00 Partly Cloudy -- 60.0 48.7 67% 58 NA 29.82 1010.1
12:58 pm PDT W 15.0 7.00 Partly Cloudy -- 60.0 48.6 67% 57 NA 29.82 1010.1
11:58 am PDT W 9.2 10.00 A Few Clouds -- 60.0 48.7 67% 59 NA 29.82 1010.1
7:58 am PDT N 0.0 6.00 Fog/Mist -- 54.0 48.7 84% NA NA 29.81 1009.8
6:58 am PDT N 0.0 3.00 Fog/Mist -- 51.0 48.0 89% NA NA 29.80 1009.4
5:58 am PDT N 0.0 10.00 Overcast -- 50.0 47.7 91% NA NA 29.78 1008.7
4:58 am PDT SW 3.5 10.00 Overcast -- 51.0 48.2 91% NA NA 29.78 1008.7
2:58 am PDT SW 6.9 10.00 Overcast -- 50.0 47.1 89% 47 NA 29.79 1009.0

Regional Weather Observation


Lompoc, Vandenberg Air Force Base, CA (KVBG)

Fair
45.0 F

Oceano County Airport, CA (KL52)

Fog/Mist
45.0 F

Lompoc, Lompoc Airport, CA (KLPC)

Fair
45.0 F

San Luis Obispo, San Luis Obispo County-Mc Chesney Field, CA (KSBP)

Fair
48.0 F

Santa Ynez, Santa Ynez Airport, CA (KIZA)

Fog/Mist
48.0 F

Paso Robles Municipal Airport, CA (KPRB)

Fair
49.0 F

Advertise Here


Advertise Here